#timestamp,LO_Frequency,Hit,StdDev 
1624845615.2,286046994.9,N
1624845635.1,286046997.5,N
1624845636.0,286046997.5,N
1624845655.8,286046997.7,N
1624845675.7,286046997.0,N
1624845695.5,286047001.1,N
1624845715.3,286047000.7,N
1624845735.2,286047000.9,N
1624845755.9,286047002.7,N
1624845775.7,286047000.7,N
1624845795.6,286046998.6,N
1624845815.4,286047002.2,N
1624845835.3,286047004.0,N
1624845855.1,286047003.9,N
1624845856.0,286047003.9,N
1624845875.8,286047005.9,N
1624845895.7,286047004.5,N
1624845915.5,286047006.8,N
1624845935.3,286047006.5,N
1624845955.2,286047006.2,N
1624845975.0,286047008.3,N
1624845975.9,286047008.3,N
1624845995.8,286047009.5,N
1624846015.6,286047010.2,N
1624846035.4,286047009.4,N
1624846055.3,286047012.4,N
1624846075.1,286047010.1,N
1624846095.9,286047009.9,N
1624846115.7,286047010.4,N
1624846135.5,286047010.4,N
1624846155.4,286047010.8,N
1624846175.2,286047010.7,N
1624846195.0,286047008.1,N
1624846195.9,286047008.1,N
1624846215.8,286047007.8,N
1624846235.6,286047010.4,N
1624846255.5,286047010.6,N
1624846275.3,286047008.4,N
1624846295.1,286047007.8,N
1624846315.9,286047008.2,N
1624846335.7,286047010.2,Y
1624846355.5,286047002.6,P
1624846375.4,286046999.8,N
1624846395.2,286047002.5,N
1624846415.1,286046999.9,N
1624846416.0,286046999.9,N
1624846435.8,286047000.1,N
1624846455.6,286047000.9,N
1624846475.5,286047000.2,N
1624846495.3,286047000.8,N
1624846515.1,286047001.1,N
1624846535.9,286047000.4,N
1624846555.7,286047001.0,N
1624846575.6,286047000.9,N
1624846595.4,286046998.2,N
1624846615.2,286047002.2,N
1624846635.1,286047002.8,N
1624846636.0,286047002.8,N
1624846655.8,286047001.9,N
1624846675.6,286047002.6,N
1624846695.5,286047002.7,N
1624846715.3,286047002.3,N
1624846735.2,286047002.6,N
1624846755.9,286047002.3,N
1624846775.7,286047001.9,N
1624846795.6,286047004.4,N
1624846815.4,286047004.3,N
1624846835.2,286047003.5,N
1624846855.1,286047004.4,N
1624846856.0,286047004.4,N
1624846875.8,286047001.5,N
1624846895.7,286047004.0,N
1624846915.5,286047004.4,N
1624846935.3,286047003.6,N
1624846955.2,286047003.4,N
1624846975.9,286047003.5,N
1624846995.7,286047005.8,Y
1624847015.6,286047001.5,P
1624847035.4,286047004.4,P
1624847055.3,286047001.6,N
1624847075.1,286047003.6,Y
1624847076.0,286047003.6,P
1624847095.8,286047001.1,N
1624847115.7,286047000.6,N
1624847135.5,286047002.8,N
1624847155.3,286047002.3,N
1624847175.2,286047001.6,N
1624847195.0,286047003.9,Y
1624847195.9,286047003.9,P
1624847215.8,286047002.4,N
1624847235.6,286047001.2,N
1624847255.4,286046997.4,N
1624847275.3,286046996.4,N
1624847295.1,286046994.4,N
1624847315.8,286046992.4,N
1624847335.7,286046991.6,N
1624847355.5,286046988.3,N
1624847375.4,286046984.3,Y
1624847395.2,286046986.3,P
1624847415.0,286046982.1,P
1624847415.9,286046982.1,N
1624847435.8,286046983.2,N
1624847455.6,286046983.4,N
1624847475.4,286046983.5,Y
1624847495.3,286046997.9,P
1624847515.1,286046995.9,N
1624847535.9,286046993.7,N
1624847555.7,286046996.4,N
1624847575.5,286046995.8,N
1624847595.4,286046993.8,N
1624847615.2,286046991.9,N
1624847635.0,286046992.9,N
1624847636.0,286046992.9,N
1624847655.8,286046992.7,N
1624847675.6,286046992.7,N
1624847695.5,286046993.8,N
1624847715.3,286046996.8,N
1624847735.1,286046999.6,N
1624847755.9,286047001.2,N
1624847775.7,286047000.9,N
1624847795.5,286047001.9,N
1624847815.4,286047002.6,N
1624847835.2,286047002.6,N
1624847855.1,286047002.6,N
1624847856.0,286047002.6,N
1624847875.8,286047002.7,N
1624847895.6,286047002.1,N
1624847915.5,286047004.3,N
1624847935.3,286047006.8,N
1624847955.1,286047004.9,N
1624847975.9,286047006.9,N
1624847995.7,286047007.0,N
1624848015.6,286047009.2,N
1624848035.4,286047010.8,N
1624848055.2,286047010.2,N
1624848075.1,286047010.1,N
1624848076.0,286047010.1,N
1624848095.8,286047010.2,N
1624848115.6,286047008.9,N
1624848135.5,286047006.5,N
1624848155.3,286047007.3,N
1624848175.2,286047005.3,N
1624848195.9,286047006.0,N
1624848215.7,286047002.9,N
1624848235.6,286047007.3,N
1624848255.4,286047006.4,N
1624848275.2,286047008.3,N
1624848295.1,286047006.2,N
1624848296.0,286047006.2,N
1624848315.8,286047006.3,N
1624848335.7,286047006.3,N
1624848355.5,286047008.3,Y
1624848375.3,286047002.1,P
1624848395.2,286046999.8,N
1624848415.0,286047002.8,N
1624848415.9,286047002.8,N
1624848435.8,286047002.5,N
1624848455.6,286046999.7,N
1624848475.4,286047002.1,N
1624848495.3,286047002.4,N
1624848515.1,286047001.4,N
1624848516.0,286047001.4,N
1624848535.8,286047004.3,N
1624848555.7,286047003.6,N
1624848575.5,286046999.9,N
1624848595.3,286047001.9,N
1624848615.2,286047001.9,N
1624848635.0,286047001.4,N
1624848635.9,286047001.4,N
1624848655.8,286047003.0,N
1624848675.6,286047005.3,Y
1624848695.4,286047001.4,P
1624848715.3,286047001.5,P
1624848735.1,286047001.0,N
1624848755.9,286046998.7,Y
1624848775.7,286046999.3,P
1624848795.5,286046998.7,N
1624848815.4,286047001.2,N
1624848835.2,286046998.4,N
1624848855.0,286046998.2,N
1624848855.9,286046998.2,N
1624848875.8,286046999.0,N
1624848895.6,286046999.4,N
1624848915.5,286046999.5,N
1624848935.3,286046999.3,N
1624848955.1,286046998.8,N
1624848975.9,286046998.4,N
1624848995.7,286047001.2,N
1624849015.5,286046998.7,N
1624849035.4,286046999.0,N
1624849055.2,286046998.2,N
1624849075.0,286046997.0,N
1624849075.9,286046997.0,N
1624849095.8,286046997.3,N
1624849115.6,286046999.6,N
1624849135.5,286046999.5,N
1624849155.3,286046998.1,N
1624849175.1,286047000.3,N
1624849195.9,286047001.9,N
